Starlink 36147

operational
NORAD ID: 66987 Int'l Des: 2025-288 Owner: SPXS Country: US Constellation: starlink
LEOCIRCULAR

Über Starlink 36147

Beschreibung wird geladen...

Live-Position

3D-Globus wird geladen...

Nächste Überflüge

Höhenverlauf

Altitude vs Time

uPlot chart will show altitude changes over time

Zweizeiliger Elementsatz

1 66987C 25288AE 25346.10673611 -.01097700 00000+0 -17350-2 0 3465
2 66987 43.0042 171.7701 0001799 271.3169 180.8780 16.03920744 19
Epoch: 12. Dez. 2025 • Age: 56 hours

Aktueller Status

Höhe 275.8 km
Geschwindigkeit 7.74 km/s
Subsatellitenpunkt -4.68°S, 51°W
Startdatum 8. Dez. 2025
Alter 5 days
Typ internet

Technische Details

Klassifizierung Payload
Masse 575.00 kg
Trockenmasse 530.00 kg
Gesamtmasse 575.00 kg
Länge 0.30 m
Durchmesser 4.10 m
Spannweite 29.00 m
Form Box + pan
Hersteller SPXS
Bus-Typ Starlink V2MO
Phasenstatus In Orbit
Besitzer/Staat SPXS/US

Große Konstellationen

Loading constellations...